Location: Champignolles
(47.0543°N, 4.5663°E)
Time: 10:39:00
(UTC+00:00)

ISS - Pass Details

Date: 07 December 2021
Orbit: 413 x 422 km, 51.6° (Epoch: 19 January)

Event Time Altitude Azimuth Distance (km) Brightness Sun altitude
Rises 17:43:12 0° 289° (WNW) 2,381 1.0 -18.0°
Reaches altitude 10° 17:45:37 10° 273° (W) 1,510 0.2 -18.4°
Maximum altitude 17:48:16 21° 222° (SW) 995 -1.2 -18.8°
Drops below altitude 10° 17:50:54 10° 170° (S) 1,498 -0.9 -19.3°
Enters shadow 17:51:53 - 162° (SSE) 1,831 -0.6 -19.4°
